Location: Oroua River
(40.4333°S, 175.4333°E)
Time: 14:12:58
(UTC+00:00)

Cosmos 1697 Rocket - Pass Details

Date: 03 February 2023
Orbit: 834 x 842 km, 71.0° (Epoch: 22 March)

Event Time Altitude Azimuth Distance (km) Brightness Sun altitude
Exits shadow 16:10:03 11° 347° (NNW) 2,368 4.6 -13.9°
Maximum altitude 16:15:26 72° 70° (ENE) 885 2.9 -13.1°
Drops below altitude 10° 16:21:06 10° 153° (SSE) 2,479 6.2 -12.2°
Sets 16:23:34 0° 154° (SSE) 3,421 7.0 -11.8°
